Location: ???? ??????? ????
(31.2176°N, 31.6797°E)
Time: 18:05:42
(UTC+00:00)

SEDSat Delta rocket - Pass Details

Date: 29 October 2020
Orbit: 533 x 1000 km, 31.4° (Epoch: 29 November)

Event Time Altitude Azimuth Distance (km) Brightness Sun altitude
Rises 17:03:16 0° 236° (SW) 3,699 7.9 -25.4°
Reaches altitude 10° 17:06:06 10° 231° (SW) 2,735 7.0 -26.0°
Enters shadow 17:12:28 48° 160° (SSE) 1,211 4.3 -27.4°
